Time,TemperatureF,DewpointF,PressureIn,WindDirection,WindDirectionDegrees,WindSpeedMPH,WindSpeedGustMPH,Humidity,HourlyPrecipIn,Conditions,Clouds,dailyrainin,SoftwareType,DateUTC
2017-12-10 00:01:00,48.2,24.4,30.32,North,351,0.0,0.0,39,0.00,,,0.00,meteobridge,2017-12-10 08:01:00,
2017-12-10 00:06:00,48.2,24.4,30.32,North,351,0.0,0.0,39,0.00,,,0.00,meteobridge,2017-12-10 08:06:00,
2017-12-10 00:11:00,48.2,24.4,30.32,North,350,0.0,0.0,39,0.00,,,0.00,meteobridge,2017-12-10 08:11:00,
2017-12-10 00:17:00,48.2,24.4,30.32,North,351,0.0,0.0,39,0.00,,,0.00,meteobridge,2017-12-10 08:17:00,
2017-12-10 00:22:00,48.0,23.5,30.32,North,351,0.0,1.0,38,0.00,,,0.00,meteobridge,2017-12-10 08:22:00,
2017-12-10 00:37:00,48.0,23.0,30.32,North,350,0.0,1.0,37,0.00,,,0.00,meteobridge,2017-12-10 08:37:00,
2017-12-10 00:42:00,48.0,24.3,30.32,North,350,0.0,1.0,39,0.00,,,0.00,meteobridge,2017-12-10 08:42:00,
2017-12-10 00:57:00,47.8,23.5,30.32,North,351,0.0,1.0,38,0.00,,,0.00,meteobridge,2017-12-10 08:57:00,
2017-12-10 01:07:00,47.8,21.6,30.32,North,350,0.0,1.0,35,0.00,,,0.00,meteobridge,2017-12-10 09:07:00,
2017-12-10 01:12:00,48.0,22.3,30.32,North,351,0.0,1.0,36,0.00,,,0.00,meteobridge,2017-12-10 09:12:00,
2017-12-10 01:17:00,47.8,22.8,30.32,North,351,0.0,1.0,37,0.00,,,0.00,meteobridge,2017-12-10 09:17:00,
2017-12-10 01:23:00,47.8,23.5,30.32,North,350,0.0,1.0,38,0.00,,,0.00,meteobridge,2017-12-10 09:23:00,
2017-12-10 01:28:00,47.8,20.8,30.32,North,351,0.0,0.0,34,0.00,,,0.00,meteobridge,2017-12-10 09:28:00,
2017-12-10 01:33:00,47.8,22.1,30.32,North,350,0.0,1.0,36,0.00,,,0.00,meteobridge,2017-12-10 09:33:00,
2017-12-10 01:48:00,48.0,21.7,30.32,North,351,0.0,1.0,35,0.00,,,0.00,meteobridge,2017-12-10 09:48:00,
2017-12-10 01:53:00,48.0,21.7,30.32,North,350,0.0,1.0,35,0.00,,,0.00,meteobridge,2017-12-10 09:53:00,
2017-12-10 01:58:00,48.0,22.3,30.32,North,351,0.0,1.0,36,0.00,,,0.00,meteobridge,2017-12-10 09:58:00,
2017-12-10 02:03:00,48.0,21.7,30.32,North,351,0.0,1.0,35,0.00,,,0.00,meteobridge,2017-12-10 10:03:00,
2017-12-10 02:08:00,48.0,20.3,30.32,North,351,0.0,1.0,33,0.00,,,0.00,meteobridge,2017-12-10 10:08:00,
2017-12-10 02:13:00,48.0,21.0,30.32,North,350,0.0,1.0,34,0.00,,,0.00,meteobridge,2017-12-10 10:13:00,
2017-12-10 02:18:00,48.0,22.3,30.32,North,351,0.0,0.0,36,0.00,,,0.00,meteobridge,2017-12-10 10:18:00,
2017-12-10 02:23:00,48.0,23.0,30.32,North,351,0.0,1.0,37,0.00,,,0.00,meteobridge,2017-12-10 10:23:00,
2017-12-10 02:28:00,47.8,22.1,30.32,North,351,0.0,1.0,36,0.00,,,0.00,meteobridge,2017-12-10 10:28:00,
2017-12-10 02:33:00,47.8,22.8,30.32,North,351,0.0,1.0,37,0.00,,,0.00,meteobridge,2017-12-10 10:33:00,
2017-12-10 02:43:00,47.7,21.4,30.32,North,351,0.0,1.0,35,0.00,,,0.00,meteobridge,2017-12-10 10:43:00,
2017-12-10 02:49:00,47.7,19.9,30.32,North,351,0.0,0.0,33,0.00,,,0.00,meteobridge,2017-12-10 10:49:00,
2017-12-10 02:54:00,47.5,20.5,30.32,North,351,1.0,1.0,34,0.00,,,0.00,meteobridge,2017-12-10 10:54:00,
2017-12-10 02:59:00,47.5,21.2,30.32,North,351,0.0,1.0,35,0.00,,,0.00,meteobridge,2017-12-10 10:59:00,
2017-12-10 03:04:00,47.1,22.1,30.32,North,351,0.0,1.0,37,0.00,,,0.00,meteobridge,2017-12-10 11:04:00,
2017-12-10 03:14:00,46.9,20.7,30.32,North,351,0.0,1.0,35,0.00,,,0.00,meteobridge,2017-12-10 11:14:00,
2017-12-10 03:25:00,46.8,21.9,30.32,North,351,0.0,1.0,37,0.00,,,0.00,meteobridge,2017-12-10 11:25:00,
2017-12-10 03:30:00,46.8,21.2,30.32,North,351,0.0,1.0,36,0.00,,,0.00,meteobridge,2017-12-10 11:30:00,
2017-12-10 03:45:00,46.8,21.9,30.32,North,351,0.0,1.0,37,0.00,,,0.00,meteobridge,2017-12-10 11:45:00,
2017-12-10 03:50:00,46.6,21.7,30.32,North,351,0.0,1.0,37,0.00,,,0.00,meteobridge,2017-12-10 11:50:00,
2017-12-10 04:00:00,46.6,22.3,30.32,North,351,0.0,1.0,38,0.00,,,0.00,meteobridge,2017-12-10 12:00:00,
2017-12-10 04:03:00,46.6,21.7,30.32,North,351,0.0,1.0,37,0.00,,,0.00,meteobridge,2017-12-10 12:03:00,
2017-12-10 04:07:00,46.8,21.2,30.32,North,351,0.0,0.0,36,0.00,,,0.00,meteobridge,2017-12-10 12:07:00,
2017-12-10 04:12:00,46.8,20.5,30.31,North,351,0.0,1.0,35,0.00,,,0.00,meteobridge,2017-12-10 12:12:00,
2017-12-10 04:17:00,46.8,21.2,30.31,North,351,0.0,1.0,36,0.00,,,0.00,meteobridge,2017-12-10 12:17:00,
2017-12-10 04:28:00,46.8,19.9,30.31,North,351,0.0,1.0,34,0.00,,,0.00,meteobridge,2017-12-10 12:28:00,
2017-12-10 04:33:00,46.8,20.5,30.31,North,351,0.0,1.0,35,0.00,,,0.00,meteobridge,2017-12-10 12:33:00,
2017-12-10 04:38:00,46.8,20.5,30.31,North,351,0.0,0.0,35,0.00,,,0.00,meteobridge,2017-12-10 12:38:00,
2017-12-10 04:43:00,46.8,20.5,30.31,North,351,0.0,1.0,35,0.00,,,0.00,meteobridge,2017-12-10 12:43:00,
2017-12-10 04:48:00,46.9,20.7,30.30,North,351,0.0,0.0,35,0.00,,,0.00,meteobridge,2017-12-10 12:48:00,
2017-12-10 04:53:00,46.8,19.9,30.31,North,351,0.0,0.0,34,0.00,,,0.00,meteobridge,2017-12-10 12:53:00,
2017-12-10 04:58:00,46.8,19.9,30.31,North,351,0.0,1.0,34,0.00,,,0.00,meteobridge,2017-12-10 12:58:00,
2017-12-10 05:03:00,46.9,19.9,30.31,North,351,0.0,1.0,34,0.00,,,0.00,meteobridge,2017-12-10 13:03:00,
2017-12-10 05:13:00,47.1,19.4,30.31,North,351,0.0,1.0,33,0.00,,,0.00,meteobridge,2017-12-10 13:13:00,
2017-12-10 05:18:00,47.1,20.1,30.31,North,351,0.0,1.0,34,0.00,,,0.00,meteobridge,2017-12-10 13:18:00,
2017-12-10 05:23:00,47.1,20.8,30.31,North,351,0.0,0.0,35,0.00,,,0.00,meteobridge,2017-12-10 13:23:00,
2017-12-10 05:38:00,47.1,20.8,30.31,North,351,0.0,1.0,35,0.00,,,0.00,meteobridge,2017-12-10 13:38:00,
2017-12-10 05:53:00,46.9,20.7,30.31,North,351,0.0,1.0,35,0.00,,,0.00,meteobridge,2017-12-10 13:53:00,
2017-12-10 05:58:00,46.8,21.9,30.31,North,351,0.0,1.0,37,0.00,,,0.00,meteobridge,2017-12-10 13:58:00,
2017-12-10 06:09:00,46.6,20.3,30.31,North,351,0.0,1.0,35,0.00,,,0.00,meteobridge,2017-12-10 14:09:00,
2017-12-10 06:14:00,46.6,19.0,30.31,North,351,0.0,0.0,33,0.00,,,0.00,meteobridge,2017-12-10 14:14:00,
2017-12-10 06:29:00,46.6,18.3,30.31,North,351,0.0,1.0,32,0.00,,,0.00,meteobridge,2017-12-10 14:29:00,
2017-12-10 06:34:00,46.6,19.0,30.31,North,351,0.0,1.0,33,0.00,,,0.00,meteobridge,2017-12-10 14:34:00,
2017-12-10 06:39:00,46.6,19.8,30.31,North,351,0.9,1.0,34,0.00,,,0.00,meteobridge,2017-12-10 14:39:00,
2017-12-10 06:44:00,46.6,19.0,30.31,North,351,0.0,0.0,33,0.00,,,0.00,meteobridge,2017-12-10 14:44:00,
2017-12-10 06:49:00,46.6,19.0,30.31,North,351,0.0,0.0,33,0.00,,,0.00,meteobridge,2017-12-10 14:49:00,
2017-12-10 06:54:00,46.6,19.0,30.31,North,351,0.0,1.0,33,0.00,,,0.00,meteobridge,2017-12-10 14:54:00,
2017-12-10 06:59:00,46.6,18.3,30.31,North,351,0.0,1.0,32,0.00,,,0.00,meteobridge,2017-12-10 14:59:00,
2017-12-10 07:04:00,46.6,18.3,30.31,North,351,0.0,0.0,32,0.00,,,0.00,meteobridge,2017-12-10 15:04:00,
2017-12-10 07:14:00,46.6,18.3,30.31,North,351,0.0,1.0,32,0.00,,,0.00,meteobridge,2017-12-10 15:14:00,
2017-12-10 07:20:00,46.4,18.9,30.31,North,351,0.0,0.0,33,0.00,,,0.00,meteobridge,2017-12-10 15:20:00,
2017-12-10 07:25:00,46.4,18.1,30.31,North,350,0.0,0.0,32,0.00,,,0.00,meteobridge,2017-12-10 15:25:00,
2017-12-10 07:30:00,46.4,18.1,30.32,North,351,0.0,1.0,32,0.00,,,0.00,meteobridge,2017-12-10 15:30:00,
2017-12-10 07:35:00,46.4,18.1,30.32,North,351,0.0,1.0,32,0.00,,,0.00,meteobridge,2017-12-10 15:35:00,
2017-12-10 07:40:00,46.4,19.6,30.32,North,351,0.0,1.0,34,0.00,,,0.00,meteobridge,2017-12-10 15:40:00,
2017-12-10 07:50:00,46.4,19.6,30.32,North,351,0.0,1.0,34,0.00,,,0.00,meteobridge,2017-12-10 15:50:00,
2017-12-10 08:00:00,46.2,20.1,30.32,North,351,0.0,1.0,35,0.00,,,0.00,meteobridge,2017-12-10 16:00:00,
2017-12-10 08:05:00,46.2,20.1,30.32,North,351,0.0,1.0,35,0.00,,,0.00,meteobridge,2017-12-10 16:05:00,
2017-12-10 08:15:00,46.2,21.4,30.32,North,351,0.0,0.0,37,0.00,,,0.00,meteobridge,2017-12-10 16:15:00,
2017-12-10 08:20:00,46.2,21.9,30.32,North,350,0.0,1.0,38,0.00,,,0.00,meteobridge,2017-12-10 16:20:00,
2017-12-10 08:25:00,46.2,22.6,30.33,North,351,0.0,0.0,39,0.00,,,0.00,meteobridge,2017-12-10 16:25:00,
2017-12-10 08:36:00,46.2,24.4,30.33,North,351,0.0,1.0,42,0.00,,,0.00,meteobridge,2017-12-10 16:36:00,
2017-12-10 08:41:00,46.2,25.5,30.33,North,351,0.0,1.0,44,0.00,,,0.00,meteobridge,2017-12-10 16:41:00,
2017-12-10 08:51:00,46.2,27.1,30.33,North,351,0.0,0.0,47,0.00,,,0.00,meteobridge,2017-12-10 16:51:00,
2017-12-10 08:56:00,46.4,28.2,30.32,North,351,0.0,1.0,49,0.00,,,0.00,meteobridge,2017-12-10 16:56:00,
2017-12-10 09:01:00,46.4,28.8,30.33,North,351,0.0,0.0,50,0.00,,,0.00,meteobridge,2017-12-10 17:01:00,
2017-12-10 09:11:00,46.8,29.7,30.33,North,351,0.0,0.0,51,0.00,,,0.00,meteobridge,2017-12-10 17:11:00,
2017-12-10 09:26:00,47.7,30.0,30.33,North,351,0.0,0.0,50,0.00,,,0.00,meteobridge,2017-12-10 17:26:00,
2017-12-10 09:41:00,48.7,30.9,30.33,North,351,0.0,0.0,50,0.00,,,0.00,meteobridge,2017-12-10 17:41:00,
2017-12-10 09:46:00,48.9,31.1,30.33,North,351,0.0,0.0,50,0.00,,,0.00,meteobridge,2017-12-10 17:46:00,
2017-12-10 09:57:00,49.3,32.4,30.33,North,351,0.0,0.0,52,0.00,,,0.00,meteobridge,2017-12-10 17:57:00,
2017-12-10 10:02:00,49.6,32.2,30.34,North,351,0.0,0.0,51,0.00,,,0.00,meteobridge,2017-12-10 18:02:00,
2017-12-10 10:07:00,49.8,32.4,30.34,North,350,0.0,0.0,51,0.00,,,0.00,meteobridge,2017-12-10 18:07:00,
2017-12-10 10:12:00,49.8,32.9,30.34,North,351,0.0,1.0,52,0.00,,,0.00,meteobridge,2017-12-10 18:12:00,
2017-12-10 10:17:00,50.2,33.6,30.34,North,351,0.0,0.0,53,0.00,,,0.00,meteobridge,2017-12-10 18:17:00,
2017-12-10 10:22:00,50.4,34.3,30.34,North,351,0.0,1.0,54,0.00,,,0.00,meteobridge,2017-12-10 18:22:00,
2017-12-10 10:27:00,50.5,34.0,30.33,North,351,0.0,0.0,53,0.00,,,0.00,meteobridge,2017-12-10 18:27:00,
2017-12-10 10:32:00,50.5,35.1,30.33,North,351,0.0,0.0,55,0.00,,,0.00,meteobridge,2017-12-10 18:32:00,
2017-12-10 10:38:00,50.5,35.4,30.33,North,351,0.0,0.0,56,0.00,,,0.00,meteobridge,2017-12-10 18:38:00,
2017-12-10 10:43:00,50.5,36.0,30.33,North,351,0.0,0.0,57,0.00,,,0.00,meteobridge,2017-12-10 18:43:00,
2017-12-10 10:48:00,50.5,36.0,30.33,North,351,0.0,0.0,57,0.00,,,0.00,meteobridge,2017-12-10 18:48:00,
2017-12-10 10:53:00,50.7,37.4,30.33,North,351,0.0,0.0,60,0.00,,,0.00,meteobridge,2017-12-10 18:53:00,
2017-12-10 11:03:00,51.1,36.9,30.32,North,351,0.0,0.0,58,0.00,,,0.00,meteobridge,2017-12-10 19:03:00,
2017-12-10 11:09:00,51.3,37.8,30.32,North,351,0.0,0.0,60,0.00,,,0.00,meteobridge,2017-12-10 19:09:00,
2017-12-10 11:14:00,51.6,36.9,30.32,North,350,0.0,0.0,57,0.00,,,0.00,meteobridge,2017-12-10 19:14:00,
2017-12-10 11:19:00,52.0,37.2,30.32,North,350,0.0,0.0,57,0.00,,,0.00,meteobridge,2017-12-10 19:19:00,
2017-12-10 11:24:00,52.3,37.0,30.32,North,350,0.0,0.0,56,0.00,,,0.00,meteobridge,2017-12-10 19:24:00,
2017-12-10 11:34:00,53.2,36.5,30.32,North,350,0.0,0.0,53,0.00,,,0.00,meteobridge,2017-12-10 19:34:00,
2017-12-10 11:39:00,53.6,37.8,30.32,North,350,0.0,0.0,55,0.00,,,0.00,meteobridge,2017-12-10 19:39:00,
2017-12-10 11:44:00,54.0,38.1,30.31,North,350,0.0,0.0,55,0.00,,,0.00,meteobridge,2017-12-10 19:44:00,
2017-12-10 11:48:00,54.3,39.9,30.31,North,351,0.0,0.0,58,0.00,,,0.00,meteobridge,2017-12-10 19:48:00,
2017-12-10 11:53:00,54.9,38.1,30.30,North,350,0.0,0.0,53,0.00,,,0.00,meteobridge,2017-12-10 19:53:00,
2017-12-10 11:58:00,55.2,36.0,30.30,North,350,0.0,0.0,48,0.00,,,0.00,meteobridge,2017-12-10 19:58:00,
2017-12-10 12:08:00,56.3,36.3,30.30,North,350,0.0,1.0,47,0.00,,,0.00,meteobridge,2017-12-10 20:08:00,
2017-12-10 12:13:00,56.8,37.4,30.30,North,351,0.0,0.0,48,0.00,,,0.00,meteobridge,2017-12-10 20:13:00,
2017-12-10 12:18:00,57.0,33.6,30.29,North,350,0.0,0.0,41,0.00,,,0.00,meteobridge,2017-12-10 20:18:00,
2017-12-10 12:23:00,57.4,36.1,30.29,North,350,0.0,0.0,45,0.00,,,0.00,meteobridge,2017-12-10 20:23:00,
2017-12-10 12:33:00,57.6,36.3,30.29,North,350,0.0,0.0,45,0.00,,,0.00,meteobridge,2017-12-10 20:33:00,
2017-12-10 12:35:00,57.6,37.4,30.29,North,350,0.0,0.0,47,0.00,,,0.00,meteobridge,2017-12-10 20:35:00,
2017-12-10 12:40:00,57.6,36.3,30.29,North,350,0.0,0.0,45,0.00,,,0.00,meteobridge,2017-12-10 20:40:00,
2017-12-10 12:45:00,57.6,37.9,30.28,North,350,0.0,0.0,48,0.00,,,0.00,meteobridge,2017-12-10 20:45:00,
2017-12-10 13:01:00,57.0,37.6,30.28,North,350,0.0,0.0,48,0.00,,,0.00,meteobridge,2017-12-10 21:01:00,
2017-12-10 13:06:00,57.0,36.5,30.28,North,350,0.0,0.0,46,0.00,,,0.00,meteobridge,2017-12-10 21:06:00,
2017-12-10 13:11:00,57.0,37.0,30.27,North,350,0.0,0.0,47,0.00,,,0.00,meteobridge,2017-12-10 21:11:00,
2017-12-10 13:16:00,57.2,36.7,30.27,North,350,0.0,1.0,46,0.00,,,0.00,meteobridge,2017-12-10 21:16:00,
2017-12-10 13:21:00,57.4,40.5,30.27,North,350,0.0,0.0,53,0.00,,,0.00,meteobridge,2017-12-10 21:21:00,
2017-12-10 13:26:00,57.6,36.3,30.27,North,349,0.0,0.0,45,0.00,,,0.00,meteobridge,2017-12-10 21:26:00,
2017-12-10 13:36:00,57.6,38.5,30.27,North,349,0.0,0.0,49,0.00,,,0.00,meteobridge,2017-12-10 21:36:00,
2017-12-10 13:41:00,57.6,36.3,30.27,North,349,0.0,0.0,45,0.00,,,0.00,meteobridge,2017-12-10 21:41:00,
2017-12-10 13:46:00,57.6,39.0,30.27,North,349,0.0,0.0,50,0.00,,,0.00,meteobridge,2017-12-10 21:46:00,
2017-12-10 13:51:00,57.4,39.4,30.26,North,349,0.0,0.0,51,0.00,,,0.00,meteobridge,2017-12-10 21:51:00,
2017-12-10 13:57:00,57.0,39.6,30.26,North,349,0.0,0.0,52,0.00,,,0.00,meteobridge,2017-12-10 21:57:00,
2017-12-10 14:02:00,56.7,39.7,30.26,North,349,0.0,0.0,53,0.00,,,0.00,meteobridge,2017-12-10 22:02:00,
2017-12-10 14:07:00,56.7,40.6,30.26,North,349,0.0,0.0,55,0.00,,,0.00,meteobridge,2017-12-10 22:07:00,
2017-12-10 14:17:00,56.5,39.0,30.26,North,349,0.0,0.0,52,0.00,,,0.00,meteobridge,2017-12-10 22:17:00,
2017-12-10 14:22:00,56.3,39.4,30.26,North,349,0.0,0.0,53,0.00,,,0.00,meteobridge,2017-12-10 22:22:00,
2017-12-10 14:27:00,56.1,38.7,30.26,North,349,0.0,0.0,52,0.00,,,0.00,meteobridge,2017-12-10 22:27:00,
2017-12-10 14:32:00,56.1,41.2,30.26,North,349,0.0,0.0,57,0.00,,,0.00,meteobridge,2017-12-10 22:32:00,
2017-12-10 14:42:00,55.8,40.8,30.26,North,349,0.0,0.0,57,0.00,,,0.00,meteobridge,2017-12-10 22:42:00,
2017-12-10 14:47:00,55.6,41.0,30.26,North,349,0.0,0.0,58,0.00,,,0.00,meteobridge,2017-12-10 22:47:00,
2017-12-10 14:52:00,55.2,41.2,30.25,North,349,0.0,0.0,59,0.00,,,0.00,meteobridge,2017-12-10 22:52:00,
2017-12-10 14:57:00,55.2,42.1,30.25,North,349,0.0,0.0,61,0.00,,,0.00,meteobridge,2017-12-10 22:57:00,
2017-12-10 15:07:00,54.9,41.7,30.25,North,349,0.0,0.0,61,0.00,,,0.00,meteobridge,2017-12-10 23:07:00,
2017-12-10 15:12:00,55.0,41.4,30.25,North,349,0.0,0.0,60,0.00,,,0.00,meteobridge,2017-12-10 23:12:00,
2017-12-10 15:17:00,55.0,41.0,30.25,North,349,0.0,0.0,59,0.00,,,0.00,meteobridge,2017-12-10 23:17:00,
2017-12-10 15:23:00,54.9,42.1,30.25,North,349,0.0,0.0,62,0.00,,,0.00,meteobridge,2017-12-10 23:23:00,
2017-12-10 15:28:00,54.5,40.8,30.25,North,349,0.0,0.0,60,0.00,,,0.00,meteobridge,2017-12-10 23:28:00,
2017-12-10 15:33:00,54.5,40.5,30.25,North,349,0.0,0.0,59,0.00,,,0.00,meteobridge,2017-12-10 23:33:00,
2017-12-10 15:34:00,54.5,41.4,30.25,North,349,0.0,0.0,61,0.00,,,0.00,meteobridge,2017-12-10 23:34:00,
2017-12-10 15:40:00,54.3,41.2,30.25,North,349,0.0,0.0,61,0.00,,,0.00,meteobridge,2017-12-10 23:40:00,
2017-12-10 15:45:00,54.1,41.4,30.25,North,349,0.0,0.0,62,0.00,,,0.00,meteobridge,2017-12-10 23:45:00,
2017-12-10 16:00:00,52.9,41.4,30.25,North,349,0.0,0.0,65,0.00,,,0.00,meteobridge,2017-12-11 00:00:00,
2017-12-10 16:05:00,52.5,41.2,30.25,North,349,0.0,0.0,65,0.00,,,0.00,meteobridge,2017-12-11 00:05:00,
2017-12-10 16:10:00,52.3,41.0,30.25,North,349,0.0,0.0,65,0.00,,,0.00,meteobridge,2017-12-11 00:10:00,
2017-12-10 16:15:00,52.0,40.6,30.25,North,349,0.0,0.0,65,0.00,,,0.00,meteobridge,2017-12-11 00:15:00,
2017-12-10 16:25:00,51.3,40.6,30.25,North,349,0.0,1.0,67,0.00,,,0.00,meteobridge,2017-12-11 00:25:00,
2017-12-10 16:30:00,51.1,40.8,30.25,North,349,0.0,1.0,68,0.00,,,0.00,meteobridge,2017-12-11 00:30:00,
2017-12-10 16:35:00,50.5,40.8,30.25,North,349,0.0,1.0,69,0.00,,,0.00,meteobridge,2017-12-11 00:35:00,
2017-12-10 16:40:00,50.2,40.5,30.25,North,349,0.0,0.0,69,0.00,,,0.00,meteobridge,2017-12-11 00:40:00,
2017-12-10 16:50:00,49.5,40.1,30.25,North,349,0.0,0.0,70,0.00,,,0.00,meteobridge,2017-12-11 00:50:00,
2017-12-10 17:00:00,48.9,39.6,30.26,North,349,0.0,1.0,70,0.00,,,0.00,meteobridge,2017-12-11 01:00:00,
2017-12-10 17:06:00,48.7,39.7,30.26,North,349,0.0,1.0,71,0.00,,,0.00,meteobridge,2017-12-11 01:06:00,
2017-12-10 17:16:00,48.2,39.2,30.26,North,349,0.0,1.0,71,0.00,,,0.00,meteobridge,2017-12-11 01:16:00,
2017-12-10 17:21:00,48.0,39.0,30.26,North,349,0.0,1.0,71,0.00,,,0.00,meteobridge,2017-12-11 01:21:00,
2017-12-10 17:26:00,47.8,38.1,30.25,North,349,0.0,0.0,69,0.00,,,0.00,meteobridge,2017-12-11 01:26:00,
2017-12-10 17:31:00,47.8,38.1,30.25,North,349,0.0,1.0,69,0.00,,,0.00,meteobridge,2017-12-11 01:31:00,
2017-12-10 17:36:00,47.7,38.3,30.25,North,350,0.0,1.0,70,0.00,,,0.00,meteobridge,2017-12-11 01:36:00,
2017-12-10 17:46:00,47.5,37.8,30.25,North,350,0.0,1.0,69,0.00,,,0.00,meteobridge,2017-12-11 01:46:00,
2017-12-10 17:51:00,47.5,37.8,30.25,North,350,0.0,1.0,69,0.00,,,0.00,meteobridge,2017-12-11 01:51:00,
2017-12-10 17:56:00,47.7,37.6,30.25,North,349,0.0,0.0,68,0.00,,,0.00,meteobridge,2017-12-11 01:56:00,
2017-12-10 18:17:00,47.7,35.6,30.26,North,349,0.0,0.0,63,0.00,,,0.00,meteobridge,2017-12-11 02:17:00,
2017-12-10 18:22:00,47.7,35.2,30.26,North,350,0.0,0.0,62,0.00,,,0.00,meteobridge,2017-12-11 02:22:00,
2017-12-10 18:27:00,47.7,35.2,30.26,North,350,0.0,0.0,62,0.00,,,0.00,meteobridge,2017-12-11 02:27:00,
2017-12-10 18:37:00,47.7,34.9,30.26,North,350,0.0,1.0,61,0.00,,,0.00,meteobridge,2017-12-11 02:37:00,
2017-12-10 18:42:00,47.7,34.0,30.26,North,350,0.0,0.0,59,0.00,,,0.00,meteobridge,2017-12-11 02:42:00,
2017-12-10 18:47:00,47.7,34.5,30.26,North,350,0.0,1.0,60,0.00,,,0.00,meteobridge,2017-12-11 02:47:00,
2017-12-10 19:02:00,47.7,34.0,30.26,North,350,0.0,0.0,59,0.00,,,0.00,meteobridge,2017-12-11 03:02:00,
2017-12-10 19:12:00,47.7,34.5,30.26,North,350,0.0,0.0,60,0.00,,,0.00,meteobridge,2017-12-11 03:12:00,
2017-12-10 19:22:00,47.8,35.4,30.26,North,350,0.0,0.0,62,0.00,,,0.00,meteobridge,2017-12-11 03:22:00,
2017-12-10 19:33:00,47.8,36.3,30.26,North,350,0.0,0.0,64,0.00,,,0.00,meteobridge,2017-12-11 03:33:00,
2017-12-10 19:38:00,48.0,36.5,30.26,North,350,0.0,0.0,64,0.00,,,0.00,meteobridge,2017-12-11 03:38:00,
2017-12-10 19:43:00,48.0,35.6,30.26,North,350,0.0,1.0,62,0.00,,,0.00,meteobridge,2017-12-11 03:43:00,
2017-12-10 19:48:00,48.0,35.6,30.26,North,351,0.0,0.0,62,0.00,,,0.00,meteobridge,2017-12-11 03:48:00,
2017-12-10 19:53:00,48.0,34.9,30.26,North,350,0.0,1.0,60,0.00,,,0.00,meteobridge,2017-12-11 03:53:00,
2017-12-10 19:58:00,48.0,35.2,30.26,North,350,0.0,1.0,61,0.00,,,0.00,meteobridge,2017-12-11 03:58:00,
2017-12-10 20:03:00,47.8,35.4,30.26,North,351,0.0,1.0,62,0.00,,,0.00,meteobridge,2017-12-11 04:03:00,
2017-12-10 20:08:00,47.8,35.1,30.26,North,351,0.0,1.0,61,0.00,,,0.00,meteobridge,2017-12-11 04:08:00,
2017-12-10 20:13:00,47.8,34.7,30.26,North,350,0.0,0.0,60,0.00,,,0.00,meteobridge,2017-12-11 04:13:00,
2017-12-10 20:23:00,47.8,34.2,30.26,North,350,0.0,1.0,59,0.00,,,0.00,meteobridge,2017-12-11 04:23:00,
2017-12-10 20:28:00,47.7,34.5,30.26,North,351,0.0,1.0,60,0.00,,,0.00,meteobridge,2017-12-11 04:28:00,
2017-12-10 20:33:00,47.7,34.0,30.27,North,350,0.0,1.0,59,0.00,,,0.00,meteobridge,2017-12-11 04:33:00,
2017-12-10 20:39:00,47.5,33.4,30.27,North,351,0.0,1.0,58,0.00,,,0.00,meteobridge,2017-12-11 04:39:00,
2017-12-10 20:44:00,47.5,32.5,30.27,North,350,0.0,1.0,56,0.00,,,0.00,meteobridge,2017-12-11 04:44:00,
2017-12-10 20:49:00,47.5,32.5,30.27,North,351,0.0,1.0,56,0.00,,,0.00,meteobridge,2017-12-11 04:49:00,
2017-12-10 20:54:00,47.7,32.7,30.27,North,350,0.0,1.0,56,0.00,,,0.00,meteobridge,2017-12-11 04:54:00,
2017-12-10 20:59:00,47.5,33.1,30.27,North,350,0.0,1.0,57,0.00,,,0.00,meteobridge,2017-12-11 04:59:00,